TimeEST,TemperatureF,Dew PointF,Humidity,Sea Level PressureIn,VisibilityMPH,Wind Direction,Wind SpeedMPH,Gust SpeedMPH,PrecipitationIn,Events,Conditions,WindDirDegrees,DateUTC
12:04 AM,10.4,6.8,85,29.71,1.0,WNW,11.5,24.2,0.00,Snow,Light Snow,300,2013-02-21 05:04:00
12:16 AM,10.4,3.2,73,29.72,2.0,WNW,11.5,20.7,0.00,Snow,Light Snow,290,2013-02-21 05:16:00
12:34 AM,8.6,3.2,79,29.73,1.2,WNW,9.2,-,0.00,Snow,Light Snow,290,2013-02-21 05:34:00
12:44 AM,6.8,1.4,79,29.73,3.0,NW,9.2,20.7,0.00,Snow,Light Snow,310,2013-02-21 05:44:00
12:51 AM,7.0,1.9,80,29.83,3.0,Variable,6.9,19.6,0.00,Snow,Light Snow,0,2013-02-21 05:51:00
1:17 AM,6.8,1.4,79,29.74,2.5,West,8.1,-,0.00,Snow,Light Snow,280,2013-02-21 06:17:00
1:26 AM,6.8,1.4,79,29.74,3.0,Variable,4.6,17.3,0.00,Snow,Light Snow,0,2013-02-21 06:26:00
1:47 AM,6.8,1.4,79,29.75,2.5,Variable,6.9,17.3,0.00,Snow,Light Snow,0,2013-02-21 06:47:00
1:51 AM,6.1,1.0,80,29.84,2.5,Variable,6.9,17.3,0.00,Snow,Light Snow,0,2013-02-21 06:51:00
2:01 AM,6.8,1.4,79,29.75,3.0,Variable,3.5,-,0.00,Snow,Light Snow,0,2013-02-21 07:01:00
2:05 AM,5.0,1.4,85,29.75,2.5,West,4.6,-,0.00,Snow,Light Snow,260,2013-02-21 07:05:00
2:18 AM,5.0,1.4,85,29.75,1.8,Calm,Calm,-,0.00,Snow,Light Snow,0,2013-02-21 07:18:00
2:28 AM,5.0,-0.4,78,29.75,3.0,West,8.1,-,0.00,Snow,Light Snow,270,2013-02-21 07:28:00
2:39 AM,3.2,-2.2,78,29.75,4.0,West,8.1,-,0.00,Snow,Light Snow,280,2013-02-21 07:39:00
2:51 AM,3.9,-2.0,76,29.86,4.0,Variable,6.9,-,0.00,Snow,Light Snow,0,2013-02-21 07:51:00
3:51 AM,1.9,-4.0,76,29.87,4.0,West,6.9,-,0.00,,Haze,270,2013-02-21 08:51:00
4:13 AM,1.4,-4.0,78,29.77,7.0,West,8.1,-,N/A,,Overcast,260,2013-02-21 09:13:00
4:51 AM,1.0,-4.0,79,29.89,7.0,West,9.2,-,N/A,,Overcast,260,2013-02-21 09:51:00
5:51 AM,1.0,-4.0,79,29.92,2.5,Variable,6.9,-,0.00,,Haze,0,2013-02-21 10:51:00
6:44 AM,-0.4,-5.8,78,29.83,3.0,West,6.9,-,0.00,,Haze,270,2013-02-21 11:44:00
7:13 AM,-0.4,-5.8,78,29.85,3.0,WSW,6.9,-,N/A,,Haze,240,2013-02-21 12:13:00
7:51 AM,-0.0,-5.1,79,29.97,2.5,West,9.2,-,0.00,Snow,Light Snow,270,2013-02-21 12:51:00
8:16 AM,1.4,-5.8,72,29.88,4.0,WSW,8.1,-,0.00,Snow,Light Snow,250,2013-02-21 13:16:00
8:49 AM,1.4,-4.0,78,29.89,2.5,West,6.9,-,0.00,Snow,Light Snow,270,2013-02-21 13:49:00
8:51 AM,1.9,-4.0,76,30.00,2.5,WSW,8.1,-,0.00,Snow,Light Snow,250,2013-02-21 13:51:00
9:16 AM,1.4,-5.8,72,29.89,2.5,WSW,12.7,17.3,0.00,Snow,Light Snow,250,2013-02-21 14:16:00
9:23 AM,1.4,-5.8,72,29.90,3.0,WSW,6.9,17.3,0.00,Snow,Light Snow,250,2013-02-21 14:23:00
9:51 AM,3.0,-4.0,73,30.02,5.0,WSW,9.2,-,0.00,,Haze,250,2013-02-21 14:51:00
10:51 AM,6.1,-2.0,69,30.04,7.0,WSW,9.2,-,N/A,,Overcast,240,2013-02-21 15:51:00
11:51 AM,8.1,1.0,73,30.06,9.0,Variable,6.9,-,0.00,,Overcast,0,2013-02-21 16:51:00
12:33 PM,8.6,1.4,73,29.95,2.0,WSW,10.4,-,0.00,Snow,Light Snow,250,2013-02-21 17:33:00
12:51 PM,9.0,1.0,70,30.07,3.0,West,6.9,16.1,0.00,Snow,Light Snow,260,2013-02-21 17:51:00
12:58 PM,8.6,1.4,73,29.97,1.8,Variable,6.9,-,0.00,Snow,Light Snow,0,2013-02-21 17:58:00
1:10 PM,8.6,1.4,73,29.97,2.5,WSW,5.8,-,0.00,Snow,Light Snow,250,2013-02-21 18:10:00
1:28 PM,8.6,1.4,73,29.98,3.0,WSW,10.4,-,0.00,Snow,Light Snow,250,2013-02-21 18:28:00
2:51 PM,9.0,3.0,77,30.15,6.0,Variable,4.6,-,0.00,,Haze,0,2013-02-21 19:51:00
3:28 PM,8.6,3.2,79,30.06,1.8,WSW,4.6,-,0.00,Snow,Light Snow,250,2013-02-21 20:28:00
3:44 PM,8.6,3.2,79,30.06,1.2,WSW,5.8,-,0.00,Snow,Light Snow,240,2013-02-21 20:44:00
3:51 PM,9.0,5.0,84,30.19,1.0,WSW,3.5,-,0.00,Snow,Light Snow,240,2013-02-21 20:51:00
3:54 PM,8.6,5.0,85,30.07,0.8,WSW,4.6,-,0.00,Snow,Light Snow,250,2013-02-21 20:54:00
4:09 PM,10.4,5.0,79,30.08,1.2,WSW,6.9,-,0.00,Snow,Light Snow,240,2013-02-21 21:09:00
4:39 PM,10.4,5.0,79,30.09,3.0,WSW,5.8,-,0.00,Snow,Light Snow,240,2013-02-21 21:39:00
4:51 PM,10.0,5.0,80,30.22,5.0,West,3.5,-,0.00,,Haze,260,2013-02-21 21:51:00
5:02 PM,10.4,5.0,79,30.11,5.0,WSW,3.5,-,N/A,,Haze,240,2013-02-21 22:02:00
5:51 PM,10.0,7.0,87,30.25,5.0,SSW,3.5,-,0.00,,Overcast,200,2013-02-21 22:51:00
6:07 PM,10.4,6.8,85,30.13,2.5,Calm,Calm,-,0.00,Snow,Light Snow,0,2013-02-21 23:07:00
6:21 PM,10.4,6.8,85,30.14,4.0,SW,4.6,-,0.00,Snow,Light Snow,230,2013-02-21 23:21:00
6:51 PM,10.0,7.0,87,30.27,9.0,SW,5.8,-,0.00,,Overcast,220,2013-02-21 23:51:00
7:51 PM,10.9,7.0,84,30.28,10.0,SSW,3.5,-,N/A,,Overcast,210,2013-02-22 00:51:00
8:51 PM,10.9,8.1,88,30.33,5.0,WSW,6.9,-,N/A,,Overcast,240,2013-02-22 01:51:00
9:18 PM,10.4,8.6,92,30.23,2.5,SW,4.6,-,N/A,,Overcast,230,2013-02-22 02:18:00
9:25 PM,10.4,8.6,92,30.24,3.0,SW,5.8,-,N/A,,Overcast,230,2013-02-22 02:25:00
9:51 PM,10.9,9.0,92,30.38,3.0,SW,6.9,-,N/A,,Overcast,220,2013-02-22 02:51:00
10:49 PM,12.2,10.4,92,30.29,2.5,SSW,6.9,-,0.00,,Overcast,210,2013-02-22 03:49:00
10:50 PM,12.0,10.0,92,30.40,2.5,SSW,6.9,-,0.00,,Overcast,210,2013-02-22 03:50:00
11:11 PM,12.2,10.4,92,30.30,3.0,SW,5.8,-,N/A,,Overcast,230,2013-02-22 04:11:00
11:51 PM,12.9,10.9,92,30.42,5.0,South,3.5,-,N/A,,Overcast,180,2013-02-22 04:51:00